sat.trackr.live / text

‹ back to catalog

STARLINK-36179

NORAD 67119 · 2025-299T

PAYLOAD ACTIVE UNKNOWN

§ Identity

Operator
Country
US
Launch date
2025-12-15
Launch site
AFETR
Launch vehicle
Mass (kg)
RCS (m²)

Purposes: comms

External: N2YO · Heavens-Above · Gunter

§ Orbital elements

Epoch: 2026-05-25T04:03:11.676096Z

Period
94.27 min
Inclination
43.0002°
Eccentricity
0.0000408
Mean motion
15.27590262 rev/d
Perigee alt
482.7 km
Apogee alt
483.3 km
Semi-major
6,861.2 km
B*
5.6346e-4
RAAN
96.9955°
Arg perigee
266.5176°
Mean anomaly
93.5629°
Rev number
2,481

§ Raw data

STARLINK-361791 67119U 25299T   26145.16888514  .00015280  00000+0  56346-3 0  99922 67119  43.0002  96.9955 0000408 266.5176  93.5629 15.27590262 24811

JSON: /api/v1/satellites/67119 · /tle

For live sub-satellite position, see the globe view (requires WebGL).

§ Visibility from observer

Set your observer location to see the next 7 days of passes ≥ 10°. The values pass through the URL so the page stays shareable.

No JS? Fill the form by hand. The geolocation button needs JavaScript.